Regional Weather Roundup
Issued by NWS State College, PA

Home | Current Version | Previous Version | Text Only | Print | Product List | Glossary On
Versions: 1 2 3 4 5 6 7 8 9 10 11 12 13 14 15 16 17 18 19 20 21 22 23 24 25 26 27 28 29 30 31 32 33 34 35 36 37 38 39 40 41 42 43 44 45 46 47 48 49 50
000
ASUS41 KCTP 231203
RWRCTP

REGIONAL WEATHER ROUNDUP
NATIONAL WEATHER SERVICE STATE COLLEGE PA
800 AM EDT TUE MAY 23 2017

Note: "fair" indicates few or no clouds below 12,000 feet with no
significant weather and/or obstructions to visibility.

* = STATION THAT DOES NOT REPORT PRECIPITATION /E.G. RAIN...SNOW...ETC/
    THUNDER OR FOG.

PAZ002>004-007>009-013>016-020>023-029>032-231300-
WESTERN PENNSYLVANIA

CITY           SKY/WX    TMP DP  RH WIND       PRES   REMARKS
ERIE           PTSUNNY   56  47  71 S8        29.93F
MEADVILLE      PTSUNNY   54  47  77 S3        29.95F
FRANKLIN*      PTSUNNY   48  43  81 CALM      29.97S
NEW CASTLE     FAIR      49  49 100 CALM      29.96S
BEAVER COUNTY  SUNNY     52  46  82 CALM      29.96S
BUTLER*        CLOUDY    52  48  87 N3        29.96S
PITTSBURGH INT CLOUDY    53  50  89 CALM      29.95S
PITTSBURGH     CLOUDY    52  48  86 N3        29.94F
INDIANA*       NOT AVBL
LATROBE        CLOUDY    48  48 100 CALM      29.96F
WASHINGTON CO* CLOUDY    48  46  93 CALM      29.95S
$$

PAZ004>006-010>012-017>019-024>028-033>037-041-042-045-046-049>053-231300-
CENTRAL PENNSYLVANIA

CITY           SKY/WX    TMP DP  RH WIND       PRES   REMARKS
BRADFORD       CLOUDY    48  45  89 CALM      29.97S
DUBOIS         CLOUDY    47  43  86 NE3       29.97S
CLEARFIELD     CLOUDY    45  44  97 CALM      29.99F
JOHNSTOWN      CLOUDY    50  44  80 NE6       29.96F
ALTOONA        CLOUDY    52  49  89 CALM      29.98F
STATE COLLEGE  SUNNY     50  46  87 CALM      29.99R
WILLIAMSPORT   CLOUDY    53  50  89 W3        29.98R
SELINSGROVE    CLOUDY    52  51  97 NW3       29.98S
FT INDIANTOWN  CLOUDY    54  54 100 CALM      29.97S
CAPITAL CITY   CLOUDY    56  52  86 W3        29.97S
HARRISBURG     CLOUDY    57  55  93 CALM      29.96S
YORK           CLOUDY    54  54 100 CALM      29.96S
$$

PAZ038>040-043-044-047-048-054-055-060>062-067>071-231300-
EASTERN PENNSYLVANIA

CITY           SKY/WX    TMP DP  RH WIND       PRES   REMARKS
SCRANTON       PTSUNNY   53  46  77 CALM      29.97S
MOUNT POCONO   CLOUDY    52  43  71 CALM      29.97S
ALLENTOWN      CLOUDY    57  52  83 CALM      29.97S
QUAKERTOWN*    CLOUDY    55  52  88 CALM      29.98S
READING        CLOUDY    56  56 100 CALM      29.96F FOG
LANCASTER      CLOUDY    56  56 100 CALM      29.97S FOG
COATESVILLE    PTSUNNY   57  54  88 NE5       29.98S
POTTSTOWN      CLOUDY    56  53  90 CALM      29.98S
BLUE BELL      CLOUDY    55  54  94 NE3       29.98S
DOYLESTOWN     CLOUDY    57  55  93 N3        29.96F
WILLOW GROVE   NOT AVBL
NORTH PHILA    CLOUDY    61  55  81 N9        29.97S
PHILADELPHIA   CLOUDY    63  53  70 N7        29.96S
$$




USA.gov is the U.S. government's official web portal to all federal, state and local government web resources and services.